(511516) = 2004 OM = 2012 XF56 = 2014 PT58

Discovered at Socorro on 2004-07-16 by LINEAR.

Orbit

Orbit type: Hungaria

Note: WebGL enabled browser required.

epoch2023-02-25.0
epoch JD2460000.5
perihelion date2020-10-16.39536
perihelion JD2459138.89536
argument of perihelion (°)211.00280
ascending node (°)296.45294
inclination (°)21.86269
eccentricity0.0192194
perihelion distance (AU)1.7902088
Tisserand w.r.t. Jupiter3.9
ΔV w.r.t. Earth (km/sec)11.0
semimajor axis (AU)1.8252897
mean anomaly (°)344.36115
mean daily motion (°/day)0.39967420
aphelion distance (AU)1.860
period (years)2.47
P-vector [x]-0.80980967
P-vector [y]0.58499736
P-vector [z]0.04456902
Q-vector [x]-0.48275871
Q-vector [y]-0.62125559
Q-vector [z]-0.61724025
absolute magnitude18.01
phase slope0.15
uncertainty0
referenceMPEC 2023-C92
observations used217
oppositions8
arc length (days)6784
first opposition used2004
last opposition used2023
residual rms (arc-secs)0.79
perturbers coarse indicatorM-v
perturbers precise indicator003Ek
first observation date used2004-07-16.0
last observation date used2023-02-11.0
computer nameMPCLINUX
JD of orbit computation2458139.154489
perihelion JD uncertainty (days)6.3926E-04
argument of perihelion uncertainty (°)2.4458E-04
ascending node uncertainty (°)8.0350E-06
inclination uncertainty (°)7.2917E-06
eccentricity uncertainty 1.4042E-07
perihelion distance uncertainty (AU)2.6116E-07
Minimum Orbit Intersection Distances (in AU)
for orbit epoch: 2460000.5, reference: E2023-C92
Mercury1.37931
Venus1.07728
Earth0.81031
Mars0.17365
Jupiter3.22504
Saturn7.28425
Uranus16.7262
Neptune28.1638

Observations

221 total observations over interval: 2004 07 16.27797 – 2023 02 11.157708
These data are available for download (format description).

Date (UT) J2000 RA J2000 Dec Magn Location Ref
2004 07 16.27797 20 04 09.60 -20 42 57.9 19.7   704 – Lincoln Laboratory ETS, New Mexico MPS 110808
2004 07 16.28866 20 04 08.25 -20 42 46.0 19.1   704 – Lincoln Laboratory ETS, New Mexico MPS 110808
2004 07 16.29945 20 04 07.02 -20 42 37.5 19.5   704 – Lincoln Laboratory ETS, New Mexico MPS 110808
2004 07 16.31028 20 04 05.84 -20 42 27.5 19.5   704 – Lincoln Laboratory ETS, New Mexico MPS 110808
2004 07 17.35238 20 02 14.21 -20 27 35.2 19.5   704 – Lincoln Laboratory ETS, New Mexico MPS 110808
2004 07 17.36262 20 02 13.01 -20 27 26.4 19.3   704 – Lincoln Laboratory ETS, New Mexico MPS 110808
2004 07 17.37358 20 02 11.85 -20 27 16.0 19.4   704 – Lincoln Laboratory ETS, New Mexico MPS 110808
2004 07 17.37393 20 02 11.85 -20 27 15.8 19.8   704 – Lincoln Laboratory ETS, New Mexico MPS 110808
2004 07 17.38491 20 02 10.63 -20 27 07.2 19.6   704 – Lincoln Laboratory ETS, New Mexico MPS 110808
2004 07 17.39671 20 02 09.26 -20 26 55.9 19.1   704 – Lincoln Laboratory ETS, New Mexico MPS 110808
2004 07 17.41254 20 02 07.57 -20 26 43.0 19.3   704 – Lincoln Laboratory ETS, New Mexico MPS 110808
2004 07 18.28028 20 00 35.12 -20 14 15.7 19.9   704 – Lincoln Laboratory ETS, New Mexico MPS 110808
2004 07 18.28555 20 00 34.50 -20 14 11.7 19.7   704 – Lincoln Laboratory ETS, New Mexico MPS 110808
2004 07 18.29061 20 00 33.94 -20 14 07.9 19.6   704 – Lincoln Laboratory ETS, New Mexico MPS 110808
2004 07 18.30639 20 00 32.19 -20 13 54.1 19.5   704 – Lincoln Laboratory ETS, New Mexico MPS 110808
2004 07 18.31145 20 00 31.67 -20 13 49.5 19.8   704 – Lincoln Laboratory ETS, New Mexico MPS 110808
2004 07 18.31695 20 00 31.04 -20 13 44.6 19.4   704 – Lincoln Laboratory ETS, New Mexico MPS 110808
2008 03 12.12814 04 50 46.75 +26 21 08.3 21.0 V G96 – Mt. Lemmon Survey MPS 538995
2008 03 12.13412 04 50 47.47 +26 21 05.7 20.6 V G96 – Mt. Lemmon Survey MPS 538995
2008 03 12.14012 04 50 48.15 +26 21 02.2 21.8 V G96 – Mt. Lemmon Survey MPS 538995
2008 03 12.14611 04 50 48.84 +26 20 59.1 21.7 V G96 – Mt. Lemmon Survey MPS 538995
2009 07 30.22967 20 50 47.03 -05 34 00.3 19.6 V 691 – Steward Observatory, Kitt Peak-Spacewatch MPS 538995
2009 07 30.24729 20 50 45.16 -05 33 47.3 19.7 V 691 – Steward Observatory, Kitt Peak-Spacewatch MPS 538995
2009 07 30.26506 20 50 43.32 -05 33 34.0 19.6 V 691 – Steward Observatory, Kitt Peak-Spacewatch MPS 538995
2012 12 10.47906 05 34 55.018 +50 38 36.49 20.2 g F51 – Pan-STARRS 1, Haleakala MPS 446239
2012 12 10.49320 05 34 53.164 +50 38 24.82 19.6 r F51 – Pan-STARRS 1, Haleakala MPS 446239
2012 12 10.50548 05 34 51.563 +50 38 14.71 19.6 r F51 – Pan-STARRS 1, Haleakala MPS 446239
2012 12 11.39394 05 33 01.17 +50 25 57.0 19.4 R 291 – LPL/Spacewatch II MPS 446239
2012 12 11.39823 05 33 00.63 +50 25 53.7 19.7 R 291 – LPL/Spacewatch II MPS 446239
2013 01 18.30383 04 44 51.023 +36 47 47.12 20.0 r F51 – Pan-STARRS 1, Haleakala MPS 538995
2013 01 18.31627 04 44 50.852 +36 47 30.16 20.0 r F51 – Pan-STARRS 1, Haleakala MPS 538995
2014 07 02.58408 22 17 30.775 -01 35 22.38 20.5 w F51 – Pan-STARRS 1, Haleakala MPS 536794
2014 07 02.59020 22 17 30.666 -01 35 15.80 20.6 w F51 – Pan-STARRS 1, Haleakala MPS 536794
2014 07 02.59631 22 17 30.546 -01 35 09.08 20.5 w F51 – Pan-STARRS 1, Haleakala MPS 536794
2014 07 02.60243 22 17 30.436 -01 35 02.44 20.4 w F51 – Pan-STARRS 1, Haleakala MPS 536794
2014 07 10.53004 22 14 04.052 +00 48 04.45 20.1 i F51 – Pan-STARRS 1, Haleakala MPS 536794
2014 07 10.54361 22 14 03.516 +00 48 19.06 20.1 i F51 – Pan-STARRS 1, Haleakala MPS 536794
2014 07 10.55714 22 14 02.990 +00 48 33.57 19.9 i F51 – Pan-STARRS 1, Haleakala MPS 536794
2014 07 10.57075 22 14 02.449 +00 48 48.07 20.1 i F51 – Pan-STARRS 1, Haleakala MPS 536794
2014 07 25.31698 22 00 33.37 +05 00 46.5 20.0 r G45 – Space Surveillance Telescope, Atom Site MPS 533470
2014 07 25.33002 22 00 32.37 +05 00 59.0 20.3 r G45 – Space Surveillance Telescope, Atom Site MPS 533470
2014 07 25.34296 22 00 31.38 +05 01 11.0 20.2 r G45 – Space Surveillance Telescope, Atom Site MPS 533470
2014 07 25.35566 22 00 30.40 +05 01 23.3 20.3 r G45 – Space Surveillance Telescope, Atom Site MPS 533470
2014 07 26.31201 21 59 19.77 +05 16 29.9 20.3 r G45 – Space Surveillance Telescope, Atom Site MPS 533470
2014 07 26.34381 21 59 17.29 +05 16 58.9 20.2 r G45 – Space Surveillance Telescope, Atom Site MPS 533470
2014 07 26.35621 21 59 16.32 +05 17 11.2 19.6 r G45 – Space Surveillance Telescope, Atom Site MPS 533470
2014 07 26.36898 21 59 15.34 +05 17 23.5 20.0 r G45 – Space Surveillance Telescope, Atom Site MPS 533470
2014 08 06.37913 21 43 35.650 +07 53 38.41 19.2 i F51 – Pan-STARRS 1, Haleakala MPS 526703
2014 08 06.39107 21 43 34.518 +07 53 47.33 19.3 i F51 – Pan-STARRS 1, Haleakala MPS 526703
2014 08 06.40309 21 43 33.352 +07 53 56.45 19.2 i F51 – Pan-STARRS 1, Haleakala MPS 526703
2014 08 06.41510 21 43 32.179 +07 54 05.69 19.3 i F51 – Pan-STARRS 1, Haleakala MPS 526703
2014 08 07.00778 21 42 36.16 +08 01 21.9 20.4   094 – Crimea-Simeiz MPS 526703
2014 08 07.01197 21 42 35.69 +08 01 24.6   094 – Crimea-Simeiz MPS 526703
2014 08 08.25408 21 40 38.34 +08 16 23.1 18.1 R 291 – LPL/Spacewatch II MPS 526703
2014 08 08.25684 21 40 38.06 +08 16 25.0 18.5 R 291 – LPL/Spacewatch II MPS 526703
2014 08 08.25960 21 40 37.78 +08 16 26.9 18.1 R 291 – LPL/Spacewatch II MPS 526703
2017 12 08.31277 07 26 41.59 +42 11 10.1 20.0 G G96 – Mt. Lemmon Survey MPS 845121
2017 12 08.31815 07 26 41.21 +42 11 07.0 20.0 G G96 – Mt. Lemmon Survey MPS 845121
2017 12 08.32353 07 26 40.69 +42 11 05.5 20.0 G G96 – Mt. Lemmon Survey MPS 845121
2017 12 08.32890 07 26 40.28 +42 11 03.6 20.0 G G96 – Mt. Lemmon Survey MPS 845121
2017 12 20.26497 07 07 05.23 +40 23 32.0 19.0 G 703 – Catalina Sky Survey MPS 849419
2017 12 20.27030 07 07 04.48 +40 23 28.2 18.6 G 703 – Catalina Sky Survey MPS 849419
2017 12 20.27564 07 07 04.00 +40 23 25.9 18.6 G 703 – Catalina Sky Survey MPS 849419
2017 12 20.28098 07 07 03.37 +40 23 22.7 18.4 G 703 – Catalina Sky Survey MPS 849419
2017 12 21.31497 07 05 04.47 +40 11 01.0 19.6 G G96 – Mt. Lemmon Survey MPS 849419
2017 12 21.32023 07 05 03.79 +40 10 57.4 19.0 G G96 – Mt. Lemmon Survey MPS 849419
2017 12 21.32549 07 05 03.19 +40 10 53.3 19.4 G G96 – Mt. Lemmon Survey MPS 849419
2017 12 21.33075 07 05 02.53 +40 10 49.3 19.2 G G96 – Mt. Lemmon Survey MPS 849419
2017 12 25.33041 06 57 08.86 +39 18 08.2 19.4 G 703 – Catalina Sky Survey MPS 851610
2017 12 25.33574 06 57 08.27 +39 18 03.9 19.1 G 703 – Catalina Sky Survey MPS 851610
2017 12 25.34110 06 57 07.52 +39 18 00.0 19.0 G 703 – Catalina Sky Survey MPS 851610
2017 12 30.14753 06 47 25.23 +38 04 28.2 19.5 G G96 – Mt. Lemmon Survey MPS 854345
2017 12 30.15284 06 47 24.59 +38 04 23.1 19.2 G G96 – Mt. Lemmon Survey MPS 854345
2017 12 30.15813 06 47 23.93 +38 04 18.1 19.6 G G96 – Mt. Lemmon Survey MPS 854345
2017 12 30.16344 06 47 23.27 +38 04 12.9 19.2 G G96 – Mt. Lemmon Survey MPS 854345
2018 01 10.45625 06 25 48.42 +34 35 18.0 19.3 o T05 – ATLAS-HKO, Haleakala MPS 855670
2018 01 10.46072 06 25 47.97 +34 35 12.9 19.1 o T05 – ATLAS-HKO, Haleakala MPS 855670
2018 01 10.47570 06 25 46.36 +34 34 53.0 19.4 o T05 – ATLAS-HKO, Haleakala MPS 855670
2018 01 10.47974 06 25 45.91 +34 34 48.5 19.3 o T05 – ATLAS-HKO, Haleakala MPS 855670
2018 01 20.22923 06 11 13.17 +31 12 06.6   G96 – Mt. Lemmon Survey MPS 861884
2018 01 20.23494 06 11 12.70 +31 11 59.1 19.5 G G96 – Mt. Lemmon Survey MPS 861884
2018 01 20.24064 06 11 12.27 +31 11 51.8   G96 – Mt. Lemmon Survey MPS 861884
2018 01 20.24632 06 11 11.78 +31 11 45.2   G96 – Mt. Lemmon Survey MPS 861884
2019 06 28.44247 22 57 18.97 +05 34 25.7 20.6 G G96 – Mt. Lemmon Survey MPS 1012449
2019 06 28.44775 22 57 19.01 +05 34 33.3 20.6 G G96 – Mt. Lemmon Survey MPS 1012449
2019 06 28.45303 22 57 19.12 +05 34 39.8 21.2 G G96 – Mt. Lemmon Survey MPS 1012449
2019 06 28.45831 22 57 19.18 +05 34 46.1 21.1 G G96 – Mt. Lemmon Survey MPS 1012449
2019 07 24.57923 22 55 06.933 +14 35 17.25 20.1 i F51 – Pan-STARRS 1, Haleakala MPS 1014842
2019 07 24.58997 22 55 06.506 +14 35 29.97 20.1 i F51 – Pan-STARRS 1, Haleakala MPS 1014842
2019 07 24.60068 22 55 06.096 +14 35 42.59 20.1 i F51 – Pan-STARRS 1, Haleakala MPS 1014842
